| time (UTC) | temp F | wind direction | speed MPH | gust MPH | rain 1hr in | rain 24hr in | rain mn in | humidity % | barometer mb |
| 20260508124514 | 61 | 150 | 1.0 | 4.0 | 0.00 | 0.44 | 0.44 | 94 | 1014.6 |
| 20260508124014 | 61 | 190 | 1.0 | 4.0 | 0.00 | 0.44 | 0.44 | 94 | 1014.7 |
| 20260508123514 | 60 | 148 | 0.0 | 2.0 | 0.00 | 0.44 | 0.44 | 94 | 1014.4 |
| 20260508123316 | 60 | 80 | 1.0 | 2.0 | 0.00 | 0.44 | 0.44 | 94 | 1014.5 |
| 20260508122513 | 60 | 117 | 1.0 | 5.0 | 0.00 | 0.44 | 0.44 | 94 | 1014.9 |
| 20260508122014 | 60 | 206 | 1.0 | 5.0 | 0.01 | 0.44 | 0.44 | 94 | 1015.2 |
| 20260508121514 | 60 | 150 | 0.0 | 3.0 | 0.08 | 0.44 | 0.44 | 94 | 1014.7 |
| 20260508121014 | 60 | 156 | 0.0 | 1.0 | 0.08 | 0.44 | 0.44 | 94 | 1014.6 |
| 20260508120515 | 60 | 134 | 0.0 | 0.0 | 0.08 | 0.44 | 0.44 | 94 | 1014.7 |
| 20260508120015 | 60 | 134 | 0.0 | 0.0 | 0.08 | 0.44 | 0.44 | 94 | 1014.7 |
| 20260508115515 | 60 | 134 | 0.0 | 1.0 | 0.09 | 0.44 | 0.44 | 94 | 1014.8 |
| 20260508115312 | 60 | 134 | 0.0 | 1.0 | 0.11 | 0.44 | 0.44 | 94 | 1014.6 |
| 20260508114514 | 60 | 227 | 0.0 | 1.0 | 0.12 | 0.44 | 0.44 | 93 | 1014.5 |
| 20260508114317 | 60 | 231 | 0.0 | 2.0 | 0.14 | 0.44 | 0.44 | 93 | 1014.7 |
| 20260508113508 | 60 | 231 | 1.0 | 4.0 | 0.14 | 0.44 | 0.44 | 93 | 1014.5 |
| 20260508113008 | 60 | 227 | 2.0 | 7.0 | 0.16 | 0.44 | 0.44 | 93 | 1014.4 |
| 20260508112508 | 60 | 172 | 3.0 | 7.0 | 0.21 | 0.44 | 0.44 | 93 | 1014.2 |
| 20260508112009 | 60 | 168 | 2.0 | 7.0 | 0.34 | 0.43 | 0.44 | 93 | 1014.1 |
| 20260508111803 | 60 | 137 | 1.0 | 3.0 | 0.34 | 0.36 | 0.38 | 93 | 1014.1 |
| 20260508111008 | 60 | 206 | 1.0 | 3.0 | 0.34 | 0.36 | 0.36 | 92 | 1014.5 |
| 20260508110506 | 60 | 142 | 1.0 | 4.0 | 0.34 | 0.36 | 0.36 | 92 | 1013.8 |
| 20260508110115 | 60 | 185 | 3.0 | 6.0 | 0.33 | 0.35 | 0.36 | 92 | 1013.9 |
| 20260508110056 | 60 | 157 | 2.0 | 6.0 | 0.34 | 0.36 | 0.36 | 92 | 1013.9 |
| 20260508105301 | 61 | 188 | 3.0 | 5.0 | 0.31 | 0.33 | 0.33 | 91 | 1014.1 |
| 20260508104505 | 61 | 150 | 1.0 | 5.0 | 0.30 | 0.32 | 0.32 | 91 | 1014.7 |
| 20260508104006 | 61 | 192 | 1.0 | 3.0 | 0.28 | 0.30 | 0.31 | 91 | 1015.1 |
| 20260508103506 | 61 | 174 | 1.0 | 3.0 | 0.28 | 0.30 | 0.30 | 90 | 1014.9 |
| 20260508103005 | 61 | 186 | 1.0 | 5.0 | 0.26 | 0.28 | 0.28 | 90 | 1014.5 |
| 20260508102506 | 61 | 155 | 2.0 | 5.0 | 0.21 | 0.23 | 0.23 | 90 | 1014.3 |
| 20260508102006 | 62 | 138 | 0.0 | 4.0 | 0.07 | 0.09 | 0.12 | 90 | 1014.1 |
| 20260508101856 | 61 | 142 | 1.0 | 4.0 | 0.00 | 0.02 | 0.02 | 90 | 1014.3 |
| 20260508101852 | 61 | 238 | 0.0 | 3.0 | 0.00 | 0.02 | 0.03 | 90 | 1014.7 |
| 20260508100807 | 61 | 185 | 1.0 | 4.0 | 0.00 | 0.02 | 0.02 | 90 | 1014.4 |
| 20260508100307 | 61 | 182 | 1.0 | 4.0 | 0.02 | 0.02 | 0.02 | 90 | 1013.7 |
| 20260508095506 | 61 | 197 | 1.0 | 4.0 | 0.02 | 0.02 | 0.02 | 90 | 1013.5 |
| 20260508095006 | 61 | 169 | 1.0 | 4.0 | 0.02 | 0.02 | 0.02 | 90 | 1013.4 |
| 20260508094504 | 61 | 151 | 1.0 | 4.0 | 0.02 | 0.02 | 0.02 | 90 | 1013.4 |
| 20260508094004 | 61 | 174 | 1.0 | 2.0 | 0.02 | 0.02 | 0.02 | 89 | 1013.5 |
| 20260508093506 | 61 | 149 | 1.0 | 2.0 | 0.02 | 0.02 | 0.02 | 89 | 1013.5 |
| 20260508093004 | 61 | 122 | 1.0 | 3.0 | 0.02 | 0.02 | 0.02 | 89 | 1013.5 |
| 20260508092503 | 61 | 153 | 1.0 | 4.0 | 0.02 | 0.02 | 0.02 | 89 | 1013.5 |
| 20260508092002 | 61 | 193 | 2.0 | 4.0 | 0.02 | 0.02 | 0.02 | 89 | 1013.7 |
| 20260508091502 | 61 | 172 | 2.0 | 4.0 | 0.02 | 0.02 | 0.02 | 88 | 1013.5 |
| 20260508091002 | 61 | 192 | 1.0 | 3.0 | 0.02 | 0.02 | 0.02 | 88 | 1013.6 |
| 20260508090502 | 61 | 151 | 1.0 | 3.0 | 0.02 | 0.02 | 0.02 | 88 | 1013.6 |
| 20260508090011 | 61 | 147 | 0.0 | 3.0 | 0.00 | 0.00 | 0.00 | 87 | 1013.8 |
| 20260508085841 | 62 | 234 | 2.0 | 5.0 | 0.00 | 0.00 | 0.00 | 87 | 1014.3 |
| 20260508085837 | 61 | 148 | 1.0 | 4.0 | 0.00 | 0.00 | 0.00 | 87 | 1013.9 |
| 20260508084513 | 62 | 175 | 2.0 | 5.0 | 0.00 | 0.00 | 0.00 | 86 | 1013.6 |
| 20260508084001 | 62 | 162 | 0.0 | 5.0 | 0.00 | 0.00 | 0.00 | 86 | 1013.7 |
| 20260508083501 | 62 | 144 | 0.0 | 1.0 | 0.00 | 0.00 | 0.00 | 85 | 1014.1 |
| 20260508083005 | 62 | 161 | 0.0 | 3.0 | 0.00 | 0.00 | 0.00 | 84 | 1014.3 |
| 20260508082749 | 62 | 200 | 1.0 | 3.0 | 0.00 | 0.00 | 0.00 | 84 | 1015.0 |
| 20260508082001 | 63 | 215 | 2.0 | 6.0 | 0.00 | 0.00 | 0.00 | 83 | 1014.6 |
| 20260508081508 | 63 | 196 | 2.0 | 7.0 | 0.00 | 0.00 | 0.00 | 82 | 1014.1 |
| 20260508080956 | 63 | 148 | 3.0 | 7.0 | 0.00 | 0.00 | 0.00 | 80 | 1013.8 |
| 20260508080543 | 64 | 146 | 3.0 | 6.0 | 0.00 | 0.00 | 0.00 | 79 | 1014.5 |
| 20260508075455 | 64 | 157 | 1.0 | 4.0 | 0.00 | 0.00 | 0.00 | 77 | 1014.7 |
| 20260508074956 | 64 | 142 | 1.0 | 3.0 | 0.00 | 0.00 | 0.00 | 77 | 1014.6 |
| 20260508074505 | 63 | 145 | 0.0 | 2.0 | 0.00 | 0.00 | 0.00 | 77 | 1015.2 |
| 20260508073954 | 63 | 195 | 0.0 | 2.0 | 0.00 | 0.00 | 0.00 | 77 | 1015.6 |
| 20260508073742 | 63 | 227 | 0.0 | 0.0 | 0.00 | 0.00 | 0.00 | 77 | 1015.6 |
| 20260508073240 | 63 | 252 | 0.0 | 0.0 | 0.00 | 0.00 | 0.00 | 77 | 1015.6 |
| 20260508072450 | 63 | 148 | 0.0 | 0.0 | 0.00 | 0.00 | 0.00 | 78 | 1015.5 |
| 20260508071949 | 63 | 148 | 0.0 | 0.0 | 0.00 | 0.00 | 0.00 | 78 | 1015.1 |
| 20260508071752 | 63 | 148 | 0.0 | 0.0 | 0.00 | 0.00 | 0.00 | 78 | 1015.3 |
| 20260508070950 | 63 | 148 | 0.0 | 0.0 | 0.00 | 0.00 | 0.00 | 78 | 1014.9 |
| 20260508070450 | 63 | 148 | 0.0 | 0.0 | 0.00 | 0.00 | 0.00 | 78 | 1014.9 |
| 20260508065951 | 62 | 148 | 0.0 | 0.0 | 0.00 | 0.00 | 0.00 | 78 | 1015.1 |
| 20260508065450 | 62 | 148 | 0.0 | 0.0 | 0.00 | 0.00 | 0.00 | 78 | 1015.3 |
| 20260508065248 | 62 | 148 | 0.0 | 0.0 | 0.00 | 0.00 | 0.00 | 78 | 1015.3 |
| 20260508064754 | 62 | 148 | 0.0 | 0.0 | 0.00 | 0.00 | 0.00 | 78 | 1015.2 |
| 20260508063952 | 62 | 148 | 0.0 | 0.0 | 0.00 | 0.00 | 0.00 | 77 | 1015.3 |
| 20260508063448 | 62 | 148 | 0.0 | 0.0 | 0.00 | 0.00 | 0.00 | 77 | 1015.5 |
| 20260508062948 | 63 | 148 | 0.0 | 0.0 | 0.00 | 0.00 | 0.00 | 77 | 1015.8 |
| 20260508062447 | 63 | 150 | 0.0 | 0.0 | 0.00 | 0.00 | 0.00 | 76 | 1015.9 |
| 20260508061945 | 63 | 150 | 0.0 | 0.0 | 0.00 | 0.00 | 0.00 | 76 | 1015.9 |
| 20260508061741 | 63 | 150 | 0.0 | 0.0 | 0.00 | 0.00 | 0.00 | 76 | 1015.8 |
| 20260508060944 | 63 | 150 | 0.0 | 0.0 | 0.00 | 0.00 | 0.00 | 75 | 1015.4 |
| 20260508060442 | 63 | 150 | 0.0 | 0.0 | 0.00 | 0.00 | 0.00 | 75 | 1015.5 |
| 20260508055945 | 63 | 150 | 0.0 | 0.0 | 0.00 | 0.00 | 0.00 | 75 | 1015.6 |
| 20260508055437 | 63 | 150 | 0.0 | 0.0 | 0.00 | 0.00 | 0.00 | 75 | 1015.8 |
| 20260508054935 | 63 | 150 | 0.0 | 0.0 | 0.00 | 0.00 | 0.00 | 74 | 1015.5 |
| 20260508054539 | 64 | 150 | 0.0 | 0.0 | 0.00 | 0.00 | 0.00 | 74 | 1015.6 |
| 20260508054521 | 64 | 150 | 0.0 | 0.0 | 0.00 | 0.00 | 0.00 | 74 | 1015.5 |
| 20260508053432 | 64 | 150 | 0.0 | 0.0 | 0.00 | 0.00 | 0.00 | 73 | 1015.6 |
| 20260508052931 | 64 | 150 | 0.0 | 0.0 | 0.00 | 0.00 | 0.00 | 73 | 1015.5 |
| 20260508052724 | 64 | 150 | 0.0 | 0.0 | 0.00 | 0.00 | 0.00 | 73 | 1015.6 |
| 20260508051928 | 64 | 150 | 0.0 | 0.0 | 0.00 | 0.00 | 0.00 | 73 | 1015.8 |
| 20260508051432 | 64 | 150 | 0.0 | 0.0 | 0.00 | 0.00 | 0.00 | 72 | 1015.6 |
| 20260508050927 | 64 | 150 | 0.0 | 0.0 | 0.00 | 0.00 | 0.00 | 72 | 1015.8 |
| 20260508050424 | 65 | 150 | 0.0 | 0.0 | 0.00 | 0.00 | 0.00 | 72 | 1015.7 |
| 20260508050238 | 65 | 150 | 0.0 | 0.0 | 0.00 | 0.00 | 0.00 | 72 | 1015.7 |
| 20260508045421 | 65 | 150 | 0.0 | 0.0 | 0.00 | 0.00 | 0.00 | 71 | 1015.8 |
| 20260508044917 | 65 | 150 | 0.0 | 0.0 | 0.00 | 0.00 | 0.00 | 71 | 1015.7 |
| 20260508044417 | 65 | 150 | 0.0 | 0.0 | 0.00 | 0.00 | 0.00 | 71 | 1015.6 |
| 20260508044222 | 65 | 150 | 0.0 | 0.0 | 0.00 | 0.00 | 0.00 | 71 | 1015.6 |
| 20260508043417 | 65 | 150 | 0.0 | 0.0 | 0.00 | 0.00 | 0.00 | 71 | 1015.5 |
| 20260508042917 | 65 | 150 | 0.0 | 0.0 | 0.00 | 0.00 | 0.00 | 71 | 1015.5 |
| 20260508042417 | 65 | 150 | 0.0 | 0.0 | 0.00 | 0.00 | 0.00 | 71 | 1015.6 |
| 20260508042323 | 65 | 150 | 0.0 | 0.0 | 0.00 | 0.00 | 0.00 | 70 | 1015.7 |
| 20260508041713 | 65 | 161 | 0.0 | 0.0 | 0.00 | 0.00 | 0.00 | 70 | 1015.7 |
| 20260508041310 | 65 | 146 | 0.0 | 0.0 | 0.00 | 0.00 | 0.00 | 70 | 1015.7 |
| 20260508041304 | 65 | 162 | 0.0 | 0.0 | 0.00 | 0.00 | 0.00 | 70 | 1015.6 |
| 20260508035920 | 65 | 146 | 0.0 | 2.0 | 0.00 | 0.00 | 0.00 | 70 | 1015.6 |
| 20260508035415 | 65 | 179 | 1.0 | 4.0 | 0.00 | 0.00 | 0.00 | 70 | 1015.6 |
| 20260508034915 | 65 | 163 | 1.0 | 4.0 | 0.00 | 0.00 | 0.00 | 69 | 1015.6 |
| 20260508034414 | 65 | 191 | 1.0 | 5.0 | 0.00 | 0.00 | 0.00 | 69 | 1015.6 |
| 20260508033915 | 65 | 129 | 1.0 | 5.0 | 0.00 | 0.00 | 0.00 | 69 | 1015.6 |
| 20260508033415 | 65 | 157 | 1.0 | 3.0 | 0.00 | 0.00 | 0.00 | 68 | 1015.6 |
| 20260508032915 | 65 | 146 | 1.0 | 3.0 | 0.00 | 0.00 | 0.00 | 68 | 1015.6 |
| 20260508032418 | 65 | 184 | 2.0 | 4.0 | 0.00 | 0.00 | 0.00 | 68 | 1015.4 |
| 20260508031915 | 65 | 172 | 1.0 | 4.0 | 0.00 | 0.00 | 0.00 | 68 | 1015.5 |
| 20260508031415 | 66 | 180 | 1.0 | 4.0 | 0.00 | 0.00 | 0.00 | 68 | 1015.4 |
| 20260508030915 | 66 | 179 | 1.0 | 3.0 | 0.00 | 0.00 | 0.00 | 68 | 1015.5 |
| 20260508030415 | 66 | 159 | 1.0 | 2.0 | 0.00 | 0.00 | 0.00 | 68 | 1015.4 |
| 20260508025914 | 66 | 153 | 1.0 | 3.0 | 0.00 | 0.00 | 0.00 | 68 | 1015.3 |
| 20260508025414 | 66 | 148 | 1.0 | 3.0 | 0.00 | 0.00 | 0.00 | 67 | 1015.2 |
| 20260508024915 | 66 | 136 | 1.0 | 3.0 | 0.00 | 0.00 | 0.00 | 67 | 1015.2 |
| 20260508024706 | 66 | 155 | 1.0 | 2.0 | 0.00 | 0.00 | 0.00 | 66 | 1015.1 |
| 20260508023915 | 66 | 163 | 1.0 | 2.0 | 0.00 | 0.00 | 0.00 | 66 | 1015.1 |
| 20260508023415 | 67 | 165 | 0.0 | 2.0 | 0.00 | 0.00 | 0.00 | 65 | 1015.0 |
| 20260508022915 | 67 | 165 | 1.0 | 3.0 | 0.00 | 0.00 | 0.00 | 64 | 1014.9 |
| 20260508022414 | 67 | 165 | 1.0 | 3.0 | 0.00 | 0.00 | 0.00 | 64 | 1015.0 |
| 20260508021913 | 67 | 194 | 1.0 | 5.0 | 0.00 | 0.00 | 0.00 | 63 | 1014.9 |
| 20260508021414 | 67 | 181 | 1.0 | 5.0 | 0.00 | 0.00 | 0.00 | 63 | 1014.8 |
| 20260508020912 | 67 | 146 | 1.0 | 4.0 | 0.00 | 0.00 | 0.00 | 63 | 1014.9 |
| 20260508020411 | 67 | 144 | 1.0 | 4.0 | 0.00 | 0.00 | 0.00 | 62 | 1014.7 |
| 20260508015909 | 68 | 156 | 2.0 | 5.0 | 0.00 | 0.00 | 0.00 | 62 | 1014.6 |
| 20260508015409 | 68 | 184 | 2.0 | 5.0 | 0.00 | 0.00 | 0.00 | 61 | 1014.8 |
| 20260508014909 | 68 | 146 | 3.0 | 8.0 | 0.00 | 0.00 | 0.00 | 61 | 1014.7 |
| 20260508014410 | 68 | 170 | 3.0 | 8.0 | 0.00 | 0.00 | 0.00 | 61 | 1014.7 |
| 20260508013908 | 68 | 168 | 3.0 | 7.0 | 0.00 | 0.00 | 0.00 | 61 | 1014.8 |
| 20260508013410 | 68 | 213 | 3.0 | 7.0 | 0.00 | 0.00 | 0.00 | 60 | 1014.8 |
| 20260508012906 | 69 | 250 | 3.0 | 6.0 | 0.00 | 0.00 | 0.00 | 60 | 1014.6 |
| 20260508012405 | 69 | 191 | 3.0 | 6.0 | 0.00 | 0.00 | 0.00 | 59 | 1014.7 |
| 20260508012200 | 69 | 140 | 3.0 | 5.0 | 0.00 | 0.00 | 0.00 | 59 | 1014.5 |
| 20260508011403 | 69 | 159 | 2.0 | 8.0 | 0.00 | 0.00 | 0.00 | 59 | 1014.6 |
| 20260508010903 | 69 | 141 | 2.0 | 8.0 | 0.00 | 0.00 | 0.00 | 58 | 1014.7 |
| 20260508010403 | 70 | 193 | 3.0 | 10.0 | 0.00 | 0.00 | 0.00 | 58 | 1014.7 |
| 20260508010158 | 70 | 213 | 2.0 | 10.0 | 0.00 | 0.00 | 0.00 | 57 | 1014.7 |
| 20260508005648 | 70 | 187 | 2.0 | 7.0 | 0.00 | 0.00 | 0.00 | 57 | 1014.6 |
| 20260508004941 | 71 | 161 | 2.0 | 6.0 | 0.00 | 0.00 | 0.00 | 57 | 1014.4 |
| 20260508004926 | 71 | 169 | 2.0 | 7.0 | 0.00 | 0.00 | 0.00 | 57 | 1014.3 |
| 20260508003850 | 71 | 161 | 2.0 | 6.0 | 0.00 | 0.00 | 0.00 | 57 | 1014.4 |
| 20260508003350 | 72 | 216 | 2.0 | 6.0 | 0.00 | 0.00 | 0.00 | 56 | 1014.5 |
| 20260508003148 | 72 | 137 | 2.0 | 6.0 | 0.00 | 0.00 | 0.00 | 55 | 1014.5 |
| 20260508002351 | 72 | 162 | 2.0 | 5.0 | 0.00 | 0.00 | 0.00 | 54 | 1014.5 |
| 20260508001850 | 73 | 139 | 2.0 | 6.0 | 0.00 | 0.00 | 0.00 | 53 | 1014.6 |
| 20260508001351 | 74 | 248 | 1.0 | 6.0 | 0.00 | 0.00 | 0.00 | 51 | 1014.7 |
| 20260508000848 | 74 | 213 | 1.0 | 5.0 | 0.00 | 0.00 | 0.00 | 48 | 1014.7 |
| 20260508000350 | 74 | 5 | 1.0 | 3.0 | 0.00 | 0.00 | 0.00 | 46 | 1014.6 |
| 20260507235847 | 74 | 340 | 1.0 | 3.0 | 0.00 | 0.00 | 0.00 | 46 | 1014.7 |
| 20260507235347 | 74 | 9 | 1.0 | 3.0 | 0.00 | 0.00 | 0.00 | 46 | 1014.7 |
| 20260507235134 | 74 | 347 | 1.0 | 3.0 | 0.00 | 0.00 | 0.00 | 46 | 1014.6 |
| 20260507234426 | 74 | 54 | 2.0 | 4.0 | 0.00 | 0.00 | 0.00 | 46 | 1014.6 |
| 20260507234409 | 74 | 351 | 1.0 | 3.0 | 0.00 | 0.00 | 0.00 | 45 | 1014.6 |
| 20260507233324 | 74 | 5 | 2.0 | 4.0 | 0.00 | 0.00 | 0.00 | 46 | 1014.6 |
| 20260507232820 | 74 | 0 | 2.0 | 7.0 | 0.00 | 0.00 | 0.00 | 45 | 1014.6 |
| 20260507232321 | 74 | 355 | 3.0 | 7.0 | 0.00 | 0.00 | 0.00 | 45 | 1014.6 |
| 20260507232108 | 75 | 10 | 3.0 | 7.0 | 0.00 | 0.00 | 0.00 | 45 | 1014.6 |
| 20260507231317 | 75 | 336 | 2.0 | 7.0 | 0.00 | 0.00 | 0.00 | 45 | 1014.7 |
| 20260507230816 | 75 | 293 | 2.0 | 4.0 | 0.00 | 0.00 | 0.00 | 45 | 1014.7 |
| 20260507230316 | 75 | 0 | 1.0 | 3.0 | 0.00 | 0.00 | 0.00 | 45 | 1014.8 |
| 20260507225816 | 74 | 344 | 2.0 | 4.0 | 0.00 | 0.00 | 0.00 | 45 | 1014.8 |
| 20260507225314 | 74 | 297 | 2.0 | 4.0 | 0.00 | 0.00 | 0.00 | 45 | 1014.7 |
| 20260507224908 | 75 | 303 | 2.0 | 4.0 | 0.00 | 0.00 | 0.00 | 45 | 1014.9 |
| 20260507224852 | 74 | 317 | 2.0 | 4.0 | 0.00 | 0.00 | 0.00 | 45 | 1014.8 |
| 20260507223814 | 74 | 5 | 2.0 | 4.0 | 0.00 | 0.00 | 0.00 | 45 | 1014.9 |
| 20260507223611 | 74 | 344 | 2.0 | 5.0 | 0.00 | 0.00 | 0.00 | 45 | 1014.9 |
| 20260507222808 | 75 | 300 | 2.0 | 5.0 | 0.00 | 0.00 | 0.00 | 44 | 1014.8 |
| 20260507222306 | 75 | 355 | 2.0 | 5.0 | 0.00 | 0.00 | 0.00 | 44 | 1014.9 |
| 20260507221804 | 75 | 355 | 2.0 | 5.0 | 0.00 | 0.00 | 0.00 | 44 | 1015.0 |
| 20260507221303 | 75 | 13 | 2.0 | 5.0 | 0.00 | 0.00 | 0.00 | 44 | 1014.8 |
| 20260507220801 | 75 | 355 | 1.0 | 3.0 | 0.00 | 0.00 | 0.00 | 44 | 1014.8 |
| 20260507220302 | 75 | 33 | 2.0 | 5.0 | 0.00 | 0.00 | 0.00 | 44 | 1014.9 |
| 20260507215800 | 75 | 328 | 2.0 | 5.0 | 0.00 | 0.00 | 0.00 | 44 | 1015.1 |
| 20260507215548 | 75 | 281 | 2.0 | 6.0 | 0.00 | 0.00 | 0.00 | 43 | 1014.9 |
| 20260507214802 | 76 | 312 | 2.0 | 7.0 | 0.00 | 0.00 | 0.00 | 44 | 1015.0 |
| 20260507214300 | 76 | 306 | 3.0 | 7.0 | 0.00 | 0.00 | 0.00 | 43 | 1015.0 |
| 20260507213802 | 76 | 25 | 3.0 | 7.0 | 0.00 | 0.00 | 0.00 | 43 | 1015.0 |
| 20260507213301 | 76 | 340 | 2.0 | 7.0 | 0.00 | 0.00 | 0.00 | 43 | 1015.2 |
| 20260507213121 | 76 | 336 | 1.0 | 4.0 | 0.00 | 0.00 | 0.00 | 43 | 1015.1 |
| 20260507212306 | 76 | 284 | 2.0 | 4.0 | 0.00 | 0.00 | 0.00 | 43 | 1015.2 |
| 20260507212049 | 76 | 57 | 2.0 | 6.0 | 0.00 | 0.00 | 0.00 | 43 | 1015.3 |
| 20260507211301 | 77 | 340 | 3.0 | 6.0 | 0.00 | 0.00 | 0.00 | 42 | 1015.3 |
| 20260507210800 | 77 | 5 | 3.0 | 8.0 | 0.00 | 0.00 | 0.00 | 42 | 1015.4 |
| 20260507210301 | 78 | 290 | 2.0 | 8.0 | 0.00 | 0.00 | 0.00 | 42 | 1015.3 |
| 20260507205800 | 77 | 355 | 2.0 | 7.0 | 0.00 | 0.00 | 0.00 | 43 | 1015.3 |
| 20260507205301 | 77 | 278 | 2.0 | 5.0 | 0.00 | 0.00 | 0.00 | 44 | 1015.4 |
| 20260507204802 | 76 | 22 | 3.0 | 6.0 | 0.00 | 0.00 | 0.00 | 44 | 1015.3 |
| 20260507204555 | 77 | 321 | 3.0 | 8.0 | 0.00 | 0.00 | 0.00 | 45 | 1015.3 |
| 20260507203800 | 76 | 244 | 3.0 | 8.0 | 0.00 | 0.00 | 0.00 | 44 | 1015.4 |
| 20260507203301 | 76 | 11 | 2.0 | 8.0 | 0.00 | 0.00 | 0.00 | 43 | 1015.6 |
| 20260507202800 | 77 | 348 | 2.0 | 7.0 | 0.00 | 0.00 | 0.00 | 43 | 1015.7 |
| 20260507202255 | 77 | 32 | 3.0 | 8.0 | 0.00 | 0.00 | 0.00 | 43 | 1015.7 |
| 20260507202045 | 76 | 334 | 3.0 | 8.0 | 0.00 | 0.00 | 0.00 | 44 | 1015.7 |
| 20260507201252 | 75 | 19 | 3.0 | 8.0 | 0.00 | 0.00 | 0.00 | 44 | 1015.9 |
| 20260507200750 | 76 | 258 | 3.0 | 8.0 | 0.00 | 0.00 | 0.00 | 43 | 1016.0 |
| 20260507200251 | 76 | 319 | 3.0 | 8.0 | 0.00 | 0.00 | 0.00 | 43 | 1015.9 |
| 20260507195750 | 76 | 34 | 3.0 | 8.0 | 0.00 | 0.00 | 0.00 | 43 | 1016.0 |
| 20260507195250 | 76 | 24 | 2.0 | 6.0 | 0.00 | 0.00 | 0.00 | 44 | 1016.2 |
| 20260507194750 | 75 | 355 | 2.0 | 7.0 | 0.00 | 0.00 | 0.00 | 45 | 1016.3 |
| 20260507194248 | 75 | 317 | 4.0 | 9.0 | 0.00 | 0.00 | 0.00 | 44 | 1016.5 |
| 20260507193832 | 75 | 355 | 4.0 | 12.0 | 0.00 | 0.00 | 0.00 | 44 | 1016.5 |
| 20260507193819 | 75 | 23 | 4.0 | 12.0 | 0.00 | 0.00 | 0.00 | 45 | 1016.4 |
| 20260507192748 | 75 | 271 | 4.0 | 9.0 | 0.00 | 0.00 | 0.00 | 44 | 1016.6 |
| 20260507192346 | 74 | 259 | 3.0 | 9.0 | 0.00 | 0.00 | 0.00 | 45 | 1016.5 |
| 20260507192327 | 75 | 307 | 3.0 | 9.0 | 0.00 | 0.00 | 0.00 | 44 | 1016.5 |
| 20260507191248 | 75 | 355 | 4.0 | 13.0 | 0.00 | 0.00 | 0.00 | 43 | 1016.7 |
| 20260507190746 | 75 | 344 | 3.0 | 13.0 | 0.00 | 0.00 | 0.00 | 46 | 1016.9 |
| 20260507190543 | 74 | 0 | 3.0 | 9.0 | 0.00 | 0.00 | 0.00 | 45 | 1016.8 |
| 20260507185746 | 74 | 285 | 3.0 | 10.0 | 0.00 | 0.00 | 0.00 | 47 | 1017.0 |
| 20260507185246 | 73 | 313 | 3.0 | 13.0 | 0.00 | 0.00 | 0.00 | 47 | 1017.0 |
| 20260507184747 | 73 | 26 | 3.0 | 13.0 | 0.00 | 0.00 | 0.00 | 47 | 1017.1 |
| 20260507184246 | 73 | 76 | 2.0 | 7.0 | 0.00 | 0.00 | 0.00 | 48 | 1017.0 |
| 20260507183749 | 73 | 79 | 4.0 | 9.0 | 0.00 | 0.00 | 0.00 | 47 | 1017.1 |
| 20260507183247 | 73 | 337 | 5.0 | 11.0 | 0.00 | 0.00 | 0.00 | 47 | 1017.2 |
| 20260507182746 | 72 | 30 | 4.0 | 11.0 | 0.00 | 0.00 | 0.00 | 47 | 1017.3 |
| 20260507182558 | 72 | 288 | 3.0 | 9.0 | 0.00 | 0.00 | 0.00 | 47 | 1017.3 |
| 20260507181744 | 72 | 304 | 3.0 | 10.0 | 0.00 | 0.00 | 0.00 | 47 | 1017.3 |
| 20260507181244 | 72 | 321 | 3.0 | 10.0 | 0.00 | 0.00 | 0.00 | 47 | 1017.4 |
| 20260507180740 | 72 | 253 | 4.0 | 10.0 | 0.00 | 0.00 | 0.00 | 49 | 1017.6 |
| 20260507180538 | 72 | 5 | 4.0 | 10.0 | 0.00 | 0.00 | 0.00 | 47 | 1017.8 |
| 20260507175740 | 71 | 290 | 4.0 | 12.0 | 0.00 | 0.00 | 0.00 | 48 | 1017.8 |
| 20260507175241 | 71 | 308 | 4.0 | 12.0 | 0.00 | 0.00 | 0.00 | 48 | 1017.9 |
| 20260507174741 | 71 | 323 | 3.0 | 12.0 | 0.00 | 0.00 | 0.00 | 48 | 1018.1 |
| 20260507174534 | 71 | 55 | 3.0 | 10.0 | 0.00 | 0.00 | 0.00 | 48 | 1018.2 |
| 20260507173740 | 70 | 0 | 3.0 | 10.0 | 0.00 | 0.00 | 0.00 | 47 | 1018.3 |
| 20260507173240 | 71 | 17 | 3.0 | 10.0 | 0.00 | 0.00 | 0.00 | 48 | 1018.4 |
| 20260507173035 | 71 | 0 | 3.0 | 10.0 | 0.00 | 0.00 | 0.00 | 47 | 1018.6 |
| 20260507172238 | 71 | 304 | 2.0 | 7.0 | 0.00 | 0.00 | 0.00 | 50 | 1018.7 |
| 20260507171738 | 71 | 181 | 2.0 | 7.0 | 0.00 | 0.00 | 0.00 | 53 | 1018.9 |
| 20260507171236 | 70 | 130 | 2.0 | 8.0 | 0.00 | 0.00 | 0.00 | 51 | 1019.0 |
| 20260507171029 | 70 | 56 | 2.0 | 8.0 | 0.00 | 0.00 | 0.00 | 51 | 1019.1 |
| 20260507170222 | 69 | 225 | 3.0 | 8.0 | 0.00 | 0.00 | 0.00 | 52 | 1019.1 |
| 20260507165723 | 69 | 340 | 3.0 | 8.0 | 0.00 | 0.00 | 0.00 | 52 | 1019.2 |
| 20260507165220 | 69 | 11 | 2.0 | 6.0 | 0.00 | 0.00 | 0.00 | 53 | 1019.2 |
| 20260507164720 | 69 | 284 | 2.0 | 6.0 | 0.00 | 0.00 | 0.00 | 54 | 1019.2 |
| 20260507164221 | 69 | 346 | 2.0 | 6.0 | 0.00 | 0.00 | 0.00 | 54 | 1019.3 |
| 20260507163720 | 69 | 5 | 3.0 | 7.0 | 0.00 | 0.00 | 0.00 | 56 | 1019.3 |
| 20260507163218 | 68 | 329 | 3.0 | 7.0 | 0.00 | 0.00 | 0.00 | 55 | 1019.3 |
| 20260507162720 | 68 | 264 | 3.0 | 6.0 | 0.00 | 0.00 | 0.00 | 55 | 1019.2 |
| 20260507162223 | 68 | 355 | 2.0 | 6.0 | 0.00 | 0.00 | 0.00 | 57 | 1019.3 |
| 20260507161719 | 68 | 36 | 3.0 | 7.0 | 0.00 | 0.00 | 0.00 | 58 | 1019.4 |
| 20260507161219 | 67 | 32 | 3.0 | 8.0 | 0.00 | 0.00 | 0.00 | 57 | 1019.4 |
| 20260507160719 | 67 | 24 | 3.0 | 8.0 | 0.00 | 0.00 | 0.00 | 59 | 1019.4 |
| 20260507160219 | 66 | 15 | 4.0 | 9.0 | 0.00 | 0.00 | 0.00 | 60 | 1019.4 |
| 20260507155718 | 65 | 351 | 3.0 | 9.0 | 0.00 | 0.00 | 0.00 | 60 | 1019.4 |
| 20260507155218 | 65 | 350 | 2.0 | 7.0 | 0.00 | 0.00 | 0.00 | 62 | 1019.5 |
| 20260507155006 | 65 | 340 | 3.0 | 7.0 | 0.00 | 0.00 | 0.00 | 62 | 1019.6 |
| 20260507154504 | 65 | 5 | 4.0 | 8.0 | 0.00 | 0.01 | 0.00 | 62 | 1019.4 |
| 20260507154019 | 65 | 344 | 4.0 | 8.0 | 0.00 | 0.02 | 0.00 | 63 | 1019.4 |
| 20260507153219 | 65 | 315 | 3.0 | 8.0 | 0.00 | 0.02 | 0.00 | 62 | 1019.8 |
| 20260507152718 | 64 | 43 | 3.0 | 6.0 | 0.00 | 0.02 | 0.00 | 65 | 1019.7 |
| 20260507152219 | 64 | 14 | 3.0 | 6.0 | 0.00 | 0.02 | 0.00 | 66 | 1019.7 |
| 20260507151720 | 63 | 348 | 2.0 | 6.0 | 0.00 | 0.02 | 0.00 | 66 | 1019.9 |
| 20260507151217 | 63 | 15 | 2.0 | 4.0 | 0.00 | 0.02 | 0.00 | 68 | 1019.8 |
| 20260507150718 | 62 | 5 | 3.0 | 5.0 | 0.00 | 0.02 | 0.00 | 69 | 1019.9 |
| 20260507150218 | 62 | 11 | 3.0 | 6.0 | 0.00 | 0.02 | 0.00 | 70 | 1019.9 |
| 20260507145718 | 62 | 298 | 2.0 | 6.0 | 0.00 | 0.02 | 0.00 | 69 | 1020.0 |
| 20260507145219 | 62 | 36 | 3.0 | 6.0 | 0.00 | 0.02 | 0.00 | 71 | 1019.8 |
| 20260507144718 | 62 | 0 | 2.0 | 6.0 | 0.00 | 0.02 | 0.00 | 70 | 1020.0 |
| 20260507144223 | 62 | 27 | 2.0 | 6.0 | 0.00 | 0.02 | 0.00 | 71 | 1020.0 |
| 20260507143718 | 62 | 329 | 3.0 | 6.0 | 0.00 | 0.02 | 0.00 | 72 | 1020.0 |
| 20260507143218 | 62 | 311 | 3.0 | 9.0 | 0.00 | 0.02 | 0.00 | 75 | 1020.0 |
| 20260507142718 | 61 | 324 | 3.0 | 9.0 | 0.00 | 0.02 | 0.00 | 77 | 1019.9 |
| 20260507142516 | 61 | 300 | 2.0 | 8.0 | 0.00 | 0.02 | 0.00 | 79 | 1020.0 |
| 20260507141718 | 60 | 342 | 2.0 | 7.0 | 0.00 | 0.02 | 0.00 | 81 | 1020.1 |
| 20260507141216 | 60 | 9 | 2.0 | 5.0 | 0.00 | 0.02 | 0.00 | 84 | 1020.1 |
| 20260507140716 | 59 | 342 | 2.0 | 6.0 | 0.00 | 0.02 | 0.00 | 86 | 1020.3 |
| 20260507140217 | 58 | 12 | 2.0 | 6.0 | 0.00 | 0.02 | 0.00 | 87 | 1020.3 |
| 20260507135716 | 58 | 331 | 1.0 | 3.0 | 0.00 | 0.02 | 0.00 | 89 | 1020.3 |
| 20260507135216 | 57 | 344 | 1.0 | 3.0 | 0.00 | 0.02 | 0.00 | 90 | 1020.3 |
| 20260507134717 | 56 | 340 | 1.0 | 4.0 | 0.00 | 0.02 | 0.00 | 91 | 1020.3 |
| 20260507134216 | 56 | 330 | 2.0 | 5.0 | 0.00 | 0.02 | 0.00 | 91 | 1020.4 |
| 20260507133711 | 55 | 5 | 2.0 | 5.0 | 0.00 | 0.02 | 0.00 | 92 | 1020.5 |
| 20260507133214 | 55 | 16 | 1.0 | 4.0 | 0.00 | 0.02 | 0.00 | 93 | 1020.4 |
| 20260507132710 | 55 | 345 | 1.0 | 3.0 | 0.00 | 0.02 | 0.00 | 93 | 1020.5 |
| 20260507132210 | 55 | 349 | 1.0 | 3.0 | 0.00 | 0.02 | 0.00 | 93 | 1020.4 |
| 20260507131710 | 54 | 313 | 1.0 | 3.0 | 0.00 | 0.02 | 0.00 | 93 | 1020.4 |
| 20260507131210 | 54 | 323 | 1.0 | 2.0 | 0.00 | 0.02 | 0.00 | 93 | 1020.4 |
| 20260507130710 | 54 | 335 | 1.0 | 3.0 | 0.00 | 0.02 | 0.00 | 93 | 1020.3 |
| 20260507130210 | 54 | 11 | 1.0 | 3.0 | 0.00 | 0.02 | 0.00 | 93 | 1020.3 |
| 20260507125708 | 53 | 5 | 1.0 | 3.0 | 0.00 | 0.02 | 0.00 | 94 | 1020.3 |
| 20260507125205 | 53 | 343 | 0.0 | 2.0 | 0.00 | 0.02 | 0.00 | 94 | 1020.1 |